Regional Weather Roundup
Issued by NWS

Home | Current Version | Previous Version | Graphics & Text | Print | Product List | Glossary On
Versions: 1 2 3 4 5 6 7 8 9 10 11 12 13 14 15 16 17 18 19 20 21 22 23 24 25 26 27 28 29 30 31 32 33 34 35 36 37 38 39 40 41 42 43 44 45 46 47 48 49 50
000
ASUS45 KTFX 292319
RWRMT
MONTANA HOURLY WEATHER ROUNDUP
NATIONAL WEATHER SERVICE GREAT FALLS MT
519 PM MDT SUN MAR 29 2015

NOTE: "FAIR" INDICATES FEW OR NO CLOUDS BELOW 12000 FEET WITH NO
SIGNIFICANT WEATHER AND/OR OBSTRUCTIONS TO VISIBILITY.

* THESE STATIONS ARE NOT UNDER NWS QUALITY CONTROL. THEY DO NOT
   REPORT WEATHER SUCH AS PRECIPITATION OR FOG.

MTZ001>007-043-300000-
WEST OF THE DIVIDE
CITY           SKY/WX    TMP DP  RH WIND       PRES   REMARKS
KALISPELL      MOCLDY    57  30  36 W14       30.11F
MISSOULA       MOCLDY    55  32  42 W9        30.18F
BUTTE          PTCLDY    57  21  25 NW14G22   30.14F
MULLAN PASS    CLOUDY    39  30  70 SW7       30.19F WCI  34
* ESSEX        N/A       51  29  43 E2G12      N/A
* EUREKA APT   CLOUDY    55  34  45 S8         N/A
* HAMILTON APT CLEAR     57  27  32 NW13      30.18F
* LIBBY APT    CLOUDY    57  34  42 S8        30.13F
* LINCOLN      N/A       55  27  34 SW8G19     N/A
* LOOKOUT PASS N/A       47  33  58 E11G19     N/A
* POLSON       N/A       59  37  44 SW3G10     N/A
* RONAN APT    PTCLDY    55  34  45 W7         N/A
* SEELEY LAKE  N/A       53  29  40 W10G17     N/A
* THOMP F APT  MOCLDY    52  17  25 S9G18      N/A
$$

MTZ008-052>055-300000-
SOUTHWEST MONTANA
CITY           SKY/WX    TMP DP  RH WIND       PRES   REMARKS
BOZEMAN        CLEAR     61  21  21 N6        30.11F
DILLON         FAIR      63  19  18 W17G26    30.12F
* W YELLOWSTON MOCLDY    51  18  27 SW6G18     N/A
* THREE FORKS  CLEAR     63  19  18 N/A        N/A
* TWIN BRIDGES CLEAR     61  16  17 N/A        N/A
* BOULDER HILL N/A       55  20  25 S14G19     N/A
* HOMESTAKE PS N/A       53  19  26 NW9G26     N/A
* MONIDA PASS  N/A       50  14  24 S16G22     N/A
* RAYNOLDS PAS N/A       51  31  46 SE13       N/A
* WHITEHALL    N/A       65  19  17 SW16G25    N/A
* WISE RIVER   N/A       54  21  27 W15G32     N/A
$$

MTZ009>010-012-014-046-048-049-054-300000-
EAST SLOPES AND CENTRAL MONTANA
CITY           SKY/WX    TMP DP  RH WIND       PRES   REMARKS
CUT BANK       CLOUDY    54  28  37 SW30G39   29.97F
GREAT FALLS    PTCLDY    57  25  29 W24G30    30.01F
HELENA         CLOUDY    61  25  25 W20       30.08F
MALMSTROM AFB  PTCLDY    57  25  29 W21G30    30.02F
* CONRAD       CLOUDY    57  30  36 SW15G22    N/A
* DEARBORN     N/A       59  27  29 NE31G39    N/A
* EAST GLACIER N/A       46  28  50 W14G27     N/A
* MONARCH      N/A       51  15  24 W29G39     N/A
* PENDROY      N/A       53  28  38 W20G26     N/A
* ROGERS PASS  N/A       48  26  42 SE17G32    N/A
* SAINT MARY   N/A       49  30  48 S12G31     N/A
* WHITE SULPH  N/A       57  19  23 W5G14      N/A
$$

MTZ011-013-016-021-035-040-045-047-050-051-300000-
NORTH CENTRAL MONTANA
CITY           SKY/WX    TMP DP  RH WIND       PRES   REMARKS
HAVRE          PTCLDY    63  30  29 W20G31    29.93F
LEWISTOWN      PTCLDY    61  27  27 NW15G24   30.02F
* N BAR RANCH  CLEAR     59  23  25 W15       30.03F
* CHINOOK      PTCLDY    63  28  27 SW21G28   29.92F
* FORT BENTON  CLEAR     63  25  24 SW22G33   29.98F
* MALTA APT    CLOUDY    64  30  28 SW18G26    N/A
* CHESTER      N/A       60  27  28 W19G32     N/A
* DENTON       N/A       60  23  24 W26G37     N/A
* GEYSER       N/A       58  18  21 W26G34     N/A
* JUDITH GAP   N/A       60  19  20 NW16G24    N/A
* LOMA         N/A       63  24  23 SW16G26    N/A
$$

MTZ017>020-022>027-061-062-300000-
NORTHEAST MONTANA
CITY           SKY/WX    TMP DP  RH WIND       PRES   REMARKS
GLASGOW        CLOUDY    61  28  29 W20G30    29.94F
GLENDIVE       MOCLDY    61  30  31 W14       29.99F
JORDAN         CLOUDY    61  28  29 W15       29.99F
SIDNEY         PTCLDY    61  30  31 W9        29.97F
WOLF POINT     CLOUDY    63  32  31 SW16      29.95F
* BEAVER HILL  N/A       59  27  29 W24G29     N/A
* CIRCLE       N/A       61  33  35 W16G21     N/A
* LINDSAY DVD  N/A       58  29  33 W17G24     N/A
* NAVAJO       N/A       58  31  36 W19G27     N/A
* PLENTYWOOD A PTCLDY    59  32  36 W16       29.92F
* POPLAR APT   CLOUDY    61  34  36 SW20G26   29.95F
* SACO         N/A       61  31  32 W17G22     N/A
$$

MTZ028>042-056>058-300000-
SOUTHCENTRAL AND SOUTHEAST MONTANA
CITY           SKY/WX    TMP DP  RH WIND       PRES   REMARKS
BAKER          MOCLDY    61  28  29 W17G29    30.02F
BILLINGS       MOCLDY    64  14  14 W10       30.02F
LIVINGSTON     MOCLDY    64  18  17 W22G35    30.05F
MILES CITY     MOCLDY    61  25  25 W15       30.01F
* BIG TIMBER A PTCLDY    61  16  17 W15G24    30.06F
* FORSYTH APT  CLOUDY    61  23  23 W12       30.01F
* LAUREL APT   PTCLDY    63  21  20 SW5        N/A
* ROUNDUP APT  PTCLDY    63  19  18 SW13G20    N/A
* ALZADA       N/A       61  24  24 SW9G16     N/A
* HYSHAM       N/A       60  20  21 W8G14      N/A
* LAME DEER    N/A       55  17  22 W20G25     N/A
* REED POINT   N/A       64  24  22 W18G25     N/A
* ROSCOE HILL  N/A       60  15  17 NE5G12     N/A
$$

REGIONAL REPORTS...DAKOTAS
CITY           SKY/WX    TMP DP  RH WIND       PRES   REMARKS
WILLISTON      MOCLDY    61  30  31 W15       29.94F
DICKINSON      FAIR      59  25  27 W21       29.97F
BEACH          FAIR      59  27  29 W21       29.99F
CROSBY         PTCLDY    57  30  36 W10       29.93F
TIOGA          PTCLDY    55  32  42 W15G23    29.97F
WATFORD CITY   FAIR      59  28  31 W16G22    29.94F
BISMARCK       CLEAR     61  30  31 NW14G23   29.97F
GRAND FORKS    MOCLDY    54  28  37 NW14      29.88S
FARGO          PTCLDY    55  25  31 NW23G35   29.91R
BUFFALO SD     PTCLDY    61  27  27 W20       29.98F
RAPID CITY     MOCLDY    63  27  26 N12       30.07F
$$

REGIONAL REPORTS...WYOMING/IDAHO/WASHINGTON
CITY           SKY/WX    TMP DP  RH WIND       PRES   REMARKS
GILLETTE       MOCLDY    61  21  21 N13       30.08S
SHERIDAN       CLOUDY    61  25  25 CALM      30.07F
CODY           PTCLDY    63  14  15 SW14G26   30.08F
YELLOWSTONE LA MOCLDY    45   9  23 VRB5      30.26F
SALMON         CLOUDY   N/A N/A N/A SE6       30.13F
MULLAN PASS    CLOUDY    39  30  70 SW7       30.19S WCI  34
SAND POINT     CLOUDY    54  37  53 SW3       30.15F
SPOKANE        CLOUDY    57  39  51 S13       30.15F
$$

REGIONAL REPORTS...ALBERTA
CITY           SKY/WX    TMP DP  RH WIND       PRES   REMARKS
CALGARY        MOCLDY    59  25  27 W24G37    29.81R
LETHBRIDGE     MOCLDY    55  30  39 W45G58    29.86F
MEDICINE HAT   MOCLDY    64  32  30 W24G31    29.82F
EDMONTON       MOCLDY    57  32  39 S3        29.74F
WATERTON GATE  N/A       55  28  35 SW14G28    N/A
CARDSTON       N/A       54  32  43 W15G24     N/A
MILK RIVER     N/A       55  30  39 W26G36     N/A
$$

REGIONAL REPORTS...SASKATCHEWAN
CITY           SKY/WX    TMP DP  RH WIND       PRES   REMARKS
SWIFT CURRENT  FAIR      59  30  33 W15G21    29.83F
REGINA         MOCLDY    54  34  47 W3        29.90F
VAL MARIE      N/A       61  30  31 W22G29     N/A
ASSINIBOIA     N/A       59  30  33 W14G23     N/A
CORONACH       N/A       61  30  31 W20G26     N/A

$$




USA.gov is the U.S. government's official web portal to all federal, state and local government web resources and services.